Regional Weather Roundup
Issued by NWS Pendleton, OR

Current Version | Previous Version | Text Only | Print | Product List | Glossary On
Versions: 1 2 3 4 5 6 7 8 9 10 11 12 13 14 15 16 17 18 19 20 21 22 23 24 25 26 27 28 29 30 31 32 33 34 35 36 37 38 39 40 41 42 43 44 45 46 47 48 49 50
000
ASUS46 KPDT 051304
RWRPDT
PENDLETON REGIONAL WEATHER ROUNDUP
NATIONAL WEATHER SERVICE PENDLETON OREGON
600 AM PDT WED AUG 5 2015

NOTE: FAIR INDICATES FEW OR NO CLOUDS BELOW 12,000 FEET WITH NO
SIGNIFICANT WEATHER AND/OR OBSTRUCTIONS TO VISIBILITY.

# INDICATES UNOFFICIAL STATION AND DATA

WAZ520-051410-
EAST SLOPES OF WASHINGTON CASCADES

CITY            SKY/WX      TMP DP  RH  WIND    PRES   REMARKS
#BULLFROG       N/A         57  46  67  W5      N/A
#BUMPING DAM    N/A         50  N/A N/A S2      N/A
#CLE ELUM HS    N/A         55  46  72  W10     29.92S
#CLE ELUM LAKE  N/A         54  45  71  CALM    29.87R
#CLIFFDEL 2NW   N/A         51  41  68  N2      N/A
#EASTON DOT     N/A         53  47  80  CALM    N/A
#ELK HTS DOT    N/A         58  58  100 W8      N/A
#GLENWOOD       N/A         38  34  85  CALM    29.95R
#MANASTASH CYN  N/A         47  35  63  CALM    29.96S
#NELSON         N/A         56  47  72  CALM    29.92R
#NELSON 3SW     N/A         56  40  55  S1      30.08S
#PEOH POINT     N/A         49  41  74  S8      N/A
#RONALD 2NW     N/A         56  36  47  NE1     29.89S
#SNOWDEN        N/A         49  35  58  CALM    N/A
#SOUTH BLEWITT  N/A         N/A N/A N/A CALM    N/A
#TEANAWAY 4NE   N/A         53  45  74  SW2     N/A
#TROUT LAKE 1NE N/A         51  40  66  E2      29.91S
$$

WAZ521-051410-
SIMCOE HIGHLANDS

CITY            SKY/WX      TMP DP  RH  WIND    PRES   REMARKS
#BICKLETON HS   N/A         50  19  29  CALM    N/A
#SATUS PASS DOT N/A         47  28  47  CALM    N/A
#CENTERVILLE 4W N/A         56  44  64  CALM    29.74S
#GOLDENDALE     N/A         53  45  74  NW3     N/A
#GOLDENDALE 1NE N/A         50  34  54  SE2     N/A
#GOLDENDALE 5WNWN/A         52  43  71  W5      29.91R
#GOODNOE HILLS  N/A         58  45  62  NW12    N/A
#LYLE 6NE       N/A         55  45  69  SW7     29.91R
$$

WAZ026-051410-
KITTITAS VALLEY

CITY            SKY/WX      TMP DP  RH  WIND    PRES   REMARKS
ELLENSBURG AP   MOCLDY      61  45  56  N12     29.96R
YTC-OPS AREA    N/A         55  39  55  W30G36  29.93R
#ELLENSBURG CWU N/A         58  45  62  N7      29.84R
#ELLENSBURG 3NE N/A         58  45  62  N6      29.96R
#KITTITAS 3S    N/A         54  46  74  CALM    29.87R
#MANASTASH RDG  N/A         56  56  100 NW1     N/A
#ROCKY CYN DOT  N/A         60  47  62  W14     N/A
#RYEGRASS DOT   N/A         54  46  74  W8      N/A
#THORP 6N       N/A         55  46  72  N6      29.89R
$$

WAZ027-051410-
YAKIMA VALLEY

CITY            SKY/WX      TMP DP  RH  WIND    PRES   REMARKS
SUNNYSIDE AP    CLEAR       48  45  89  CALM    29.94R
YAKIMA AIRPORT  PTCLDY      57  35  43  W8      29.95R
#DONALD 2NE     N/A         60  32  35  CALM    28.79R
#GRANDVIEW      N/A         56  44  64  CALM    29.92R
#MABTON         N/A         54  46  74  CALM    29.93R
#MOXEE 2E       N/A         57  35  43  CALM    29.92R
#NACHES 2SW     N/A         58  43  57  W7      29.96S
#PARKER DOT     N/A         63  42  46  SE6     N/A
#SELAH 8E       N/A         52  40  63  S2      N/A
#TERRACE HTS    N/A         62  41  46  N5      29.84R
#TOPPENISH      N/A         62  43  50  N2      29.82S
#I82 S UMTANUM RN/A         57  43  59  N1      N/A
#UNION GAP DOT  N/A         62  39  43  NW6     N/A
#WAPATO 4NE     N/A         60  32  35  CALM    28.79R
#WEST VALLEY    N/A         62  39  43  NW2     29.87R
#W YAKIMA       N/A         61  42  50  N3      29.88R
#WHITE SWAN 5E  N/A         47  39  74  W1      29.90S
#WILEY CITY 3W  N/A         49  28  44  CALM    29.92R
#ZILLAH DOT     N/A         57  45  64  CALM    N/A
$$

WAZ028-051410-
LOWER COLUMBIA BASIN...WASHINGTON

CITY            SKY/WX      TMP DP  RH  WIND    PRES   REMARKS
PASCO           CLEAR       60  49  67  CALM    29.93R
RICHLAND AWOS   CLEAR       63  46  54  S5      29.93R
#BASIN CITY 5SW N/A         62  45  54  W2      29.91R
#BENTON CITY    N/A         56  46  69  NW3     29.80R
#CONNELL 5N     N/A         52  44  74  CALM    29.86R
#CONNELL 5NW    N/A         53  45  74  CALM    29.83R
#ELTOPIA 6NW    N/A         61  45  56  W7      28.89R
#KAHLOTUS       N/A         59  42  53  W7      29.86R
#KENNEWICK 3S   N/A         62  48  60  S3      29.89R
#PASCO-BROADMOORN/A         59  48  67  CALM    29.82R
#PATERSON       N/A         60  48  64  NW3     29.90R
#PROSSER DOT    N/A         54  48  80  CALM    N/A
#PROSSER        N/A         59  44  57  CALM    29.89R
#SAGEMOOR 2W    N/A         58  49  72  CALM    29.74R
#TOUCHET 2S     N/A         66  42  42  SW13    29.88R
#WEST PASCO     N/A         59  47  64  CALM    29.87R
$$

WAZ029-051410-
FOOTHILLS OF THE BLUES...WASHINGTON

CITY            SKY/WX      TMP DP  RH  WIND    PRES   REMARKS
WALLA WALLA AP  PTCLDY      65  38  37  S12     29.96R
#DAYTON SCHOOL  N/A         65  35  33  N7      29.94S
#LOWDEN 2SE     N/A         59  46  62  CALM    29.91R
#PLEASANT VIEW 1N/A         57  42  57  SW7     29.89R
#PRESCOTT       N/A         55  42  61  CALM    29.88R
#SUDBURY        N/A         50  N/A N/A CALM    N/A
#WHITMAN COLLEGEN/A         64  42  45  SE3     29.94R
#WAITSBURG 8N   N/A         59  14  17  S6      29.79S
#WALLA WALLA U  N/A         63  44  50  CALM    29.90R
$$

WAZ030-051410-
BLUE MOUNTAINS...WASHINGTON

CITY            SKY/WX      TMP DP  RH  WIND    PRES   REMARKS
$$

ORZ009-041-WAZ024-051410-
COLUMBIA RIVER GORGE

CITY            SKY/WX      TMP DP  RH  WIND    PRES   REMARKS
HOOD RIVER AP   CLEAR       57  50  77  W9      30.03R
THE DALLES AP   PTCLDY      62  48  60  SW6     29.99R
#ARLINGTON AIRPON/A         60  46  60  W8      29.80R
#MARYHILL       N/A         62  43  50  CALM    N/A
#MOSIER 1S      N/A         57  44  62  NW6     30.02R
#MURDOCK        N/A         63  54  72  NW28    29.98S

$$

ORZ510-051410-
NORTH CENTRAL OREGON

CITY            SKY/WX      TMP DP  RH  WIND    PRES   REMARKS
#CHENOWITH 1W   N/A         53  48  83  W28     N/A
#DUFUR 9E       N/A         59  34  39  SW10    29.97R
#GRASS VALLEY 1SN/A         50  38  63  SW14    29.97R
#MAUPIN SCHOOL  N/A         55  37  51  CALM    30.02R
#MORO SCHOOL    N/A         52  41  66  CALM    30.01R
#SHANIKO 4NW    N/A         54  32  43  SW8     30.06R
#TYGH VALLEY 2NEN/A         50  34  54  NE2     29.96R
#WAPANITIA AIRPON/A         57  41  55  NW3     29.94R
#WASCO 5NE      N/A         57  45  64  N10     29.91R
$$

ORZ511-051410-
CENTRAL OREGON

CITY            SKY/WX      TMP DP  RH  WIND    PRES   REMARKS
BEND AIRPORT    CLEAR       50  39  66  SW6     30.07S
MADRAS AIRPORT  CLEAR       48  36  63  SE5     30.07S
PRINEVILLE AP   CLEAR       43  34  70  CALM    30.06F
REDMOND AIRPORT CLEAR       45  35  68  S3      30.06S
#BEND 1SW       N/A         52  42  69  CALM    N/A
#BEND-AWBREY    N/A         54  39  57  CALM    29.90R
#BEND-KIM LN    N/A         50  43  77  SW1     30.04S
#CULVER         N/A         50  39  66  CALM    30.01S
#LAKE BILLY CHINN/A         51  19  28  CALM    30.12R
#POWELL BUTTE 3EN/A         48  34  58  E3      N/A
#POWELL BUTTE   N/A         53  34  48  S2      29.69F
#PRINEVILLE 3N  N/A         45  38  76  SW3     29.91S
#WARM SPRINGS   N/A         50  38  63  CALM    30.01S

$$


ORZ509-051410-
EAST SLOPES OF OREGON CASCADES

CITY            SKY/WX      TMP DP  RH  WIND    PRES   REMARKS
#CAMP SHERMAN   N/A         50  38  63  CALM    29.96R
#LA PINE 4NW    N/A         39  35  85  CALM    29.95S
#SISTERS AIRPOR N/A         44  39  82  CALM    30.17S
#SISTERS 3N     N/A         46  30  53  CALM    30.31R
#SUNRIVER       N/A         47  42  83  CALM    29.79S

$$

ORZ044-051410-
LOWER COLUMBIA BASIN...OREGON

CITY            SKY/WX      TMP DP  RH  WIND    PRES   REMARKS
HERMISTON       PTCLDY      63  42  46  W12     29.95R
#BOARDMAN SCHOOLN/A         63  46  54  SW8     29.95R
#BOARDMAN 8SW   N/A         60  47  62  SW9     29.92R
#ECHO 8SW       N/A         65  34  31  W14     29.95R
#IONE SCHOOL    N/A         65  35  33  S5      29.94R
#IRRIGON 4NW    N/A         63  49  60  SW6     N/A
#UMATILLA SCHOOLN/A         57  53  86  CALM    29.98S
#UMATILLA       N/A         60  46  60  CALM    29.86R
$$

ORZ507-051410-
NORTHERN FOOTHILLS OF THE BLUES

CITY            SKY/WX      TMP DP  RH  WIND    PRES   REMARKS
PENDLETON AIRPT PTCLDY      61  30  31  SW10    29.97R
#ADAMS 3WNW     N/A         50  34  54  CALM    29.91R
#ATHENA         N/A         55  36  49  CALM    29.92R
#CAYUSE         N/A         59  37  44  E6      29.90R
#HELIX SCHOOL   N/A         55  37  51  CALM    29.89R
#HELIX 3N       N/A         55  37  51  N8      29.95R
#HOLDMAN 5SE    N/A         54  35  48  CALM    29.98R
#HOLDMAN 6E     N/A         59  37  44  N7      29.71R
#M-FREEWATER 5SEN/A         57  41  55  CALM    29.97R
#PENDLETON DNTN N/A         56  31  38  CALM    N/A
#PDT AQUATIC CTRN/A         56  30  37  CALM    29.94S
#PDT SUNRIDGE   N/A         54  34  47  CALM    29.98R
#PENDLETON 7NW  N/A         58  38  47  W1      29.24S
#PILOT ROCK     N/A         53  25  33  CALM    30.01R
#TUTUILLA       N/A         51  33  50  CALM    29.93R
#UMAPINE 2E     N/A         64  43  46  SW1     29.91S
#WESTON SCHOOL  N/A         59  31  34  W3      29.91R

$$

ORZ508-051410-
SOUTHERN FOOTHILLS OF THE BLUES

CITY            SKY/WX      TMP DP  RH  WIND    PRES   REMARKS
#AJAX           N/A         59  33  37  S2      29.96R
#CONDON SCHOOL  N/A         51  30  44  SE2     29.99S
#CONDON 5W      N/A         53  35  50  SW7     30.01R
#FOSSIL SCHOOL  N/A         46  24  42  CALM    30.00R
#HEPPNER EOC    N/A         59  28  30  SW7     29.85R
#LEXINGTON 2SE  N/A         53  32  45  SE2     29.98R
#OLEX 4N        N/A         57  39  51  SW6     29.96R
#RUGGS 5NE      N/A         53  20  27  S1      30.20R

$$

ORZ502-503-051410-
BLUE MOUNTAINS

CITY            SKY/WX      TMP DP  RH  WIND    PRES   REMARKS
MEACHAM         CLEAR       39  31  73  VRB3    30.05R
#HEPPNER 15SE   N/A         54  26  34  CALM    29.96S
#LONG CREEK HS  N/A         49  30  48  CALM    30.02R
#PIKES PEAK     N/A         57  35  43  S22     27.99S
#TOLLGATE       N/A         48  32  54  SW2     29.93R
#TROY SCHOOL    N/A         62  41  46  CALM    29.70R
#UKIAH          N/A         38  31  76  CALM    29.98R
$$

ORZ505-051410-
JOHN DAY BASIN

CITY            SKY/WX      TMP DP  RH  WIND    PRES   REMARKS
JOHN DAY        CLOUDY      60  28  29  SW5     30.05F
#JOHN DAY KJDY  N/A         58  49  72  CALM    30.03R
#DAYVILLE SCHOOLN/A         57  27  31  CALM    30.00F
#MITCHELL       N/A         49  31  50  CALM    30.22S
#MONUMENT HS    N/A         48  34  58  CALM    30.03R
#MT. VERNON 5SE N/A         58  30  34  CALM    30.02F
$$

ORZ506-051410-
OCHOCO AND JOHN DAY HIGHLANDS

CITY            SKY/WX      TMP DP  RH  WIND    PRES   REMARKS
#PINE MTN OBS   N/A         53  27  36  W3      N/A
#PRAIRIE CITY   N/A         54  43  66  CALM    30.04S
#SENECA         N/A         55  N/A N/A CALM    N/A
#SENECA 9NW     N/A         52  37  56  CALM    29.84F
$$

ORZ049-051410-
GRANDE RONDE VALLEY

CITY            SKY/WX      TMP DP  RH  WIND    PRES   REMARKS
LA GRANDE       PTCLDY      57  23  27  W7      30.02R
#COVE           N/A         57  37  47  E2      30.03S
#COVE SCHOOL    N/A         55  35  47  CALM    30.04R
#COVE 6NW       N/A         55  33  43  CALM    29.91R
#ELGIN 3N       N/A         56  32  40  CALM    29.98R
#ELGIN 1E       N/A         57  34  42  CALM    N/A
#IMBLER SCHOOL  N/A         54  36  50  E3      29.96R
#ISLAND CITY 4N N/A         54  51  90  CALM    30.10R
#UNION 1S       N/A         60  33  36  CALM    29.78S
$$

ORZ050-051410-
WALLOWA COUNTY

CITY            SKY/WX      TMP DP  RH  WIND    PRES   REMARKS
#ENTERPRISE HS  N/A         54  50  86  CALM    30.03R
#IMNAHA SCHOOL  N/A         67  49  52  S1      29.93R
#IMNAHA 10S     N/A         62  48  60  SW7     29.97R
#JOSEPH 3N      N/A         52  43  71  CALM    30.05R
#JOSEPH 3W      N/A         50  47  89  SW2     29.89R
#LOSTINE        N/A         55  44  66  CALM    29.67R
#MT HOWARD 8000 N/A         50  41  71  S3      30.22S
#PROMISE 1S     N/A         59  38  45  E7      29.92R
#WALLOWA SCHOOL N/A         61  36  39  W2      29.96S



$$



USA.gov is the U.S. government's official web portal to all federal, state and local government web resources and services.